Location: *
(45.1961°N, 1.9694°E)
Time: 16:49:56
(UTC+00:00)

Cosmos 2098 Rocket - Pass Details

Date: 25 August 2019
Orbit: 367 x 1192 km, 82.9° (Epoch: 15 September)

Event Time Altitude Azimuth Distance (km) Brightness Sun altitude
Rises 20:11:41 0° 354° (N) 2,995 7.2 -15.1°
Reaches altitude 10° 20:13:45 10° 357° (N) 2,192 6.4 -15.4°
Maximum altitude 20:18:42 70° 81° (E) 890 3.6 -16.1°
Enters shadow 20:23:24 18° 163° (SSE) 2,167 5.4 -16.8°
